DECAYED

CZ-6A DEB, 64647 (Decayed)

Orbit data source: Space-Track

CZ-6A DEB, 64647 was space debris in LEO originally from a launch on Tue, 06 Aug 2024 UTC launched from the Taiyaun Space Center, China (TSC). Debris objects in space refer to the collection of defunct objects orbiting the Earth. Examples of debris include non-operational satellites, rocket bodies, and fragments generated from explosions, collisions, or faulty payload assembly.

Not visible in the next 10 days
Identifier
64647, 2024-140AEM
Orbit
Decayed
Country
Flag of CNCN / PRC
Related business
Manufacturer
SAST
Mission
Decayed spacecraft
Bus & Motor
Unknown
Mass
Unknown
Launch date (UTC)
2024-08-06 (1 year ago)
Launch vehicle
Unknown
Launch site
Taiyaun Space Center, China (TSC)
Object type
Payload
Rocket body
Debris
Shape & HBR
Unknown shape, 1.1 m
Radar Cross Section
Small (<0.1 m²)

Expand to show TLE details & history
Last TLE update: 6 months ago

TLE from 6 months ago
0 CZ-6A DEB
1 64647U 24140AEM 25170.22990684  .25786392 -95572-6  92222-2 0  9999
2 64647  89.0057 313.6140 0022583 295.9265  63.9709 16.24302606 35916
Epoch: 2025-06-19T05:31Z
TLE epoch observation values (Epoch: 2025-06-19T05:31:03.950Z)
Latitude
-0.00008°
Longitude
-36.85304°
Altitude
204.734 km
Speed
7.787 km/s
True Right ascension
20h 54m 27s
True Declination
0° 00' 00"
Sunlit
Object was in full shadow at epoch
Visualization orbit readout
Latitude
Unknown
Longitude
Unknown
Altitude
Unknown
Speed
Unknown
Apparent Right ascension
Unknown
Apparent Declination
Unknown
Sunlit
N/A
Visualization observer readout
Local Sidereal Time
10:53:37
Azimuth
Unknown
Elevation
Unknown
Doppler factor
Unknown
Orbital elements
Apogee altitude
219.426 km
Perigee altitude
189.695 km
Semi-major axis
6,582.697 km
Eccentricity
0.00226
Inclination
89.0057°
RAAN
313.614°
Arg. of periapsis
295.9265°
True anomaly
64.20372°
Mean anomaly
63.9709°
Eccentric anomaly
64.08728°
Mean motion
4.06385 °/min
Orbital period
88.59 mins
BSTAR
0.0092222
Loading maneuver chart data...
Computing Atmospheric mass density...
Loading historical data...
Loading historical data...
Loading historical data...
Loading historical data...
Loading historical data...
Loading historical data...
Loading historical data...

Documentation

Showing up to 5 results
|